H1 CPF 2 NER 2021 7 15 9 196 01 glonass139 H2 1808601 9139 43687 2021 7 15 0 0 0 2021 7 18 23 45 0 900 1 1 0 0 0 1 H9 10 0 59410 0.00000 0 20859219.601 -13476081.393 5865395.103 10 0 59410 900.00000 0 20090941.847 -12975832.981 8901653.396 10 0 59410 1800.00000 0 19105064.083 -12164060.915 11765223.607 10 0 59410 2700.00000 0 17958394.815 -11028253.742 14400631.362 10 0 59410 3600.00000 0 16710968.902 -9568459.073 16756856.607 10 0 59410 4500.00000 0 15423469.595 -7797531.510 18788311.423 10 0 59410 5400.00000 0 14154645.775 -5740850.425 20455711.067 10 0 59410 6300.00000 0 12958832.051 -3435518.768 21726822.604 10 0 59410 7200.00000 0 11883674.637 -929075.750 22577077.861 10 0 59410 8100.00000 0 10968157.013 1722224.090 22990040.065 10 0 59410 9000.00000 0 10241006.697 4455495.286 22957716.167 10 0 59410 9900.00000 0 9719548.668 7203584.317 22480709.424 10 0 59410 10800.00000 0 9409052.439 9897614.742 21568209.636 10 0 59410 11700.00000 0 9302599.546 12469610.937 20237821.028 10 0 59410 12600.00000 0 9381476.823 14855093.237 18515230.531 10 0 59410 13500.00000 0 9616079.146 16995538.371 16433721.968 10 0 59410 14400.00000 0 9967284.282 18840604.183 14033544.291 10 0 59410 15300.00000 0 10388242.787 20350026.849 11361144.817 10 0 59410 16200.00000 0 10826508.380 21495111.990 8468280.982 10 0 59410 17100.00000 0 11226419.719 22259757.485 5411026.619 10 0 59410 18000.00000 0 11531633.502 22640964.903 2248691.178 10 0 59410 18900.00000 0 11687701.974 22648817.678 -957327.723 10 0 59410 19800.00000 0 11644585.502 22305926.391 -4144736.398 10 0 59410 20700.00000 0 11358993.157 21646363.916 -7251558.390 10 0 59410 21600.00000 0 10796450.996 20714134.850 -10217344.989 10 0 59410 22500.00000 0 9933008.980 19561243.453 -12984358.693 10 0 59410 23400.00000 0 8756512.482 18245441.544 -15498705.653 10 0 59410 24300.00000 0 7267382.696 16827751.495 -17711394.215 10 0 59410 25200.00000 0 5478870.950 15369869.157 -19579298.079 10 0 59410 26100.00000 0 3416774.333 13931556.678 -21066004.526 10 0 59410 27000.00000 0 1118622.847 12568135.636 -22142530.642 10 0 59410 27900.00000 0 -1367629.302 11328186.478 -22787893.170 10 0 59410 28800.00000 0 -3985354.489 10251551.525 -22989520.601 10 0 59410 29700.00000 0 -6671372.134 9367725.682 -22743499.400 10 0 59410 30600.00000 0 -9358350.789 8694702.417 -22054649.545 10 0 59410 31500.00000 0 -11977391.720 8238323.212 -20936428.020 10 0 59410 32400.00000 0 -14460686.354 7992157.126 -19410662.284 10 0 59410 33300.00000 0 -16744136.753 7937914.622 -17507119.145 10 0 59410 34200.00000 0 -18769829.771 8046377.052 -15262917.754 10 0 59410 35100.00000 0 -20488261.804 8278801.289 -12721798.555 10 0 59410 36000.00000 0 -21860221.629 8588738.849 -9933262.901 10 0 59410 36900.00000 0 -22858253.180 8924191.268 -6951600.763 10 0 59410 37800.00000 0 -23467638.077 9230009.332 -3834826.127 10 0 59410 38700.00000 0 -23686857.983 9450433.546 -643541.535 10 0 59410 39600.00000 0 -23527518.917 9531667.455 2560245.343 10 0 59410 40500.00000 0 -23013742.343 9424374.286 5714329.435 10 0 59410 41400.00000 0 -22181050.329 9085990.932 8757516.420 10 0 59410 42300.00000 0 -21074793.101 8482761.358 11630807.456 10 0 59410 43200.00000 0 -19748186.390 7591403.620 14278537.662 10 0 59410 44100.00000 0 -18260041.823 6400340.319 16649446.683 10 0 59410 45000.00000 0 -16672286.053 4910440.861 18697661.244 10 0 59410 45900.00000 0 -15047372.560 3135244.278 20383571.762 10 0 59410 46800.00000 0 -13445693.946 1100652.987 21674587.218 10 0 59410 47700.00000 0 -11923102.051 -1155890.292 22545754.935 10 0 59410 48600.00000 0 -10528638.298 -3586709.053 22980234.527 10 0 59410 49500.00000 0 -9302567.637 -6135629.890 22969617.822 10 0 59410 50400.00000 0 -8274796.800 -8740079.019 22514089.301 10 0 59410 51300.00000 0 -7463741.641 -11333453.153 21622424.215 10 0 59410 52200.00000 0 -6875689.814 -13847668.169 20311824.303 10 0 59410 53100.00000 0 -6504684.836 -16215781.481 18607593.723 10 0 59410 54000.00000 0 -6332936.015 -18374580.831 16542660.535 10 0 59410 54900.00000 0 -6331737.146 -20267033.203 14156951.792 10 0 59410 55800.00000 0 -6462855.739 -21844492.788 11496633.034 10 0 59410 56700.00000 0 -6680334.844 -23068576.457 8613225.596 10 0 59410 57600.00000 0 -6932632.104 -23912628.513 5562617.602 10 0 59410 58500.00000 0 -7165006.200 -24362713.100 2403986.966 10 0 59410 59400.00000 0 -7322050.046 -24418092.115 -801343.311 10 0 59410 60300.00000 0 -7350263.384 -24091167.805 -3991095.586 10 0 59410 61200.00000 0 -7200555.343 -23406891.657 -7103250.392 10 0 59410 62100.00000 0 -6830569.989 -22401663.724 -10077257.618 10 0 59410 63000.00000 0 -6206735.005 -21121768.152 -12855221.809 10 0 59410 63900.00000 0 -5305945.164 -19621410.451 -15383037.585 10 0 59410 64800.00000 0 -4116807.474 -17960439.096 -17611452.216 10 0 59410 65700.00000 0 -2640393.422 -16201847.476 -19497033.839 10 0 59410 66600.00000 0 -890464.655 -14409161.662 -21003025.631 10 0 59410 67500.00000 0 1106839.272 -12643824.238 -22100068.781 10 0 59410 68400.00000 0 3313839.579 -10962684.555 -22766779.735 10 0 59410 69300.00000 0 5682649.490 -9415701.161 -22990170.206 10 0 59410 70200.00000 0 8156943.239 -8043953.001 -22765901.644 10 0 59410 71100.00000 0 10674089.571 -6878042.706 -22098369.217 10 0 59410 72000.00000 0 13167560.863 -5936958.650 -21000613.721 10 0 59410 72900.00000 0 15569517.384 -5227442.764 -19494063.292 10 0 59410 73800.00000 0 17813458.792 -4743889.624 -17608110.163 10 0 59410 74700.00000 0 19836831.937 -4468779.762 -15379531.021 10 0 59410 75600.00000 0 21583486.026 -4373627.404 -12851762.659 10 0 59410 76500.00000 0 23005872.574 -4420401.013 -10074047.497 10 0 59410 77400.00000 0 24066898.369 -4563355.064 -7100466.277 10 0 59410 78300.00000 0 24741354.457 -4751193.980 -3988877.464 10 0 59410 79200.00000 0 25016862.140 -4929475.316 -799784.697 10 0 59410 80100.00000 0 24894297.422 -5043149.296 2404844.842 10 0 59410 81000.00000 0 24387677.477 -5039126.299 5562787.536 10 0 59410 81900.00000 0 23523515.316 -4868763.016 8612772.005 10 0 59410 82800.00000 0 22339671.184 -4490161.868 11495665.525 10 0 59410 83700.00000 0 20883750.139 -3870186.410 14155615.277 10 0 59410 84600.00000 0 19211113.924 -2986107.782 16541122.708 10 0 59410 85500.00000 0 17382591.060 -1826813.001 18606030.825 10 0 59411 0.00000 0 15461981.057 -393524.411 20310406.328 10 0 59411 900.00000 0 13513456.715 1300000.483 21621300.867 10 0 59411 1800.00000 0 11598972.018 3227796.278 22513377.516 10 0 59411 2700.00000 0 9775783.146 5352533.051 22969392.111 10 0 59411 3600.00000 0 8094183.578 7626839.946 22980520.831 10 0 59411 4500.00000 0 6595546.998 9995056.331 22546528.444 10 0 59411 5400.00000 0 5310757.586 12395338.903 21675774.374 10 0 59411 6300.00000 0 4259091.924 14762039.121 20385056.268 10 0 59411 7200.00000 0 3447598.136 17028253.815 18699293.611 10 0 59411 8100.00000 0 2870997.448 19128444.622 16651056.566 10 0 59411 9000.00000 0 2512111.911 21001018.681 14279947.962 10 0 59411 9900.00000 0 2342800.358 22590763.989 11631849.098 10 0 59411 10800.00000 0 2325363.447 23851038.462 8758042.631 10 0 59411 11700.00000 0 2414358.982 24745621.355 5714228.329 10 0 59411 12600.00000 0 2558751.318 25250149.202 2559449.887 10 0 59411 13500.00000 0 2704304.260 25353075.453 -645046.995 10 0 59411 14400.00000 0 2796116.180 25056112.627 -3837003.345 10 0 59411 15300.00000 0 2781189.684 24374137.351 -6954359.195 10 0 59411 16200.00000 0 2610926.212 23334561.282 -9936465.353 10 0 59411 17100.00000 0 2243438.768 21976193.459 -12725270.514 10 0 59411 18000.00000 0 1645583.406 20347641.269 -15266459.599 10 0 59411 18900.00000 0 794621.775 18505316.880 -17510520.369 10 0 59411 19800.00000 0 -320557.415 16511132.741 -19413716.699 10 0 59411 20700.00000 0 -1698711.447 14429983.120 -20938948.706 10 0 59411 21600.00000 0 -3326043.680 12327117.591 -22056482.473 10 0 59411 22500.00000 0 -5176540.731 10265516.983 -22744534.693 10 0 59411 23400.00000 0 -7212833.998 8303382.091 -22989700.555 10 0 59411 24300.00000 0 -9387550.490 6491840.511 -22787216.433 10 0 59411 25200.00000 0 -11645097.203 4872967.558 -22141052.259 10 0 59411 26100.00000 0 -13923804.741 3478203.856 -21063831.809 10 0 59411 27000.00000 0 -16158340.743 2327235.166 -19576582.664 10 0 59411 27900.00000 0 -18282292.148 1427380.387 -17708320.856 10 0 59411 28800.00000 0 -20230808.111 773512.085 -15495478.659 10 0 59411 29700.00000 0 -21943192.763 348511.234 -12981187.010 10 0 59411 30600.00000 0 -23365339.219 124235.206 -10214427.016 10 0 59411 31500.00000 0 -24451902.758 62956.344 -7249067.730 10 0 59411 32400.00000 0 -25168122.391 119208.506 -4142809.596 10 0 59411 33300.00000 0 -25491214.870 241961.789 -956054.850 10 0 59411 34200.00000 0 -25411283.366 377031.993 2249272.302 10 0 59411 35100.00000 0 -24931703.695 469621.594 5410932.167 10 0 59411 36000.00000 0 -24068972.993 466883.868 8467578.756 10 0 59411 36900.00000 0 -22852028.421 320401.143 11359947.865 10 0 59411 37800.00000 0 -21321065.571 -11527.781 14032001.049 10 0 59411 38700.00000 0 -19525907.005 -561887.613 16432003.733 10 0 59411 39600.00000 0 -17523989.849 -1353318.065 18513517.164 10 0 59411 40500.00000 0 -15378056.747 -2396925.233 20236286.054 10 0 59411 41400.00000 0 -13153646.292 -3691582.717 21567005.949 10 0 59411 42300.00000 0 -10916486.930 -5223751.889 22479956.653 10 0 59411 43200.00000 0 -8729901.759 -6967829.298 22957490.785 10 0 59411 44100.00000 0 -6652330.770 -8887007.536 22990368.996 10 0 59411 45000.00000 0 -4735072.091 -10934614.758 22577936.110 10 0 59411 45900.00000 0 -3020334.486 -13055878.532 21728135.122 10 0 59411 46800.00000 0 -1539680.619 -15190042.269 20457358.678 10 0 59411 47700.00000 0 -312924.594 -17272747.797 18790140.391 10 0 59411 48600.00000 0 652471.278 -19238586.570 16758691.063 10 0 59411 49500.00000 0 1361476.048 -21023714.689 14402287.587 10 0 59411 50400.00000 0 1831042.974 -22568423.738 11766525.083 10 0 59411 51300.00000 0 2089154.544 -23819560.778 8902445.405 10 0 59411 52200.00000 0 2173399.676 -24732696.540 5865557.674 10 0 59411 53100.00000 0 2129142.787 -25273950.701 2714768.952 10 0 59411 54000.00000 0 2007361.847 -25421397.060 -488754.851 10 0 59411 54900.00000 0 1862246.787 -25165988.578 -3682775.998 10 0 59411 55800.00000 0 1748660.083 -24511962.206 -6805196.609 10 0 59411 56700.00000 0 1719567.640 -23476705.187 -9795271.057 10 0 59411 57600.00000 0 1823549.718 -22090087.216 -12594794.806 10 0 59411 58500.00000 0 2102498.477 -20393285.519 -15149245.664 10 0 59411 59400.00000 0 2589601.162 -18437151.429 -17408854.355 10 0 59411 60300.00000 0 3307695.853 -16280186.535 -19329582.757 10 0 59411 61200.00000 0 4268070.995 -13986213.153 -20873989.907 10 0 59411 62100.00000 0 5469761.084 -11621836.761 -22011968.388 10 0 59411 63000.00000 0 6899369.813 -9253806.824 -22721336.305 10 0 59411 63900.00000 0 8531429.463 -6946386.709 -22988273.015 10 0 59411 64800.00000 0 10329282.645 -4758842.819 -22807590.032 10 0 59411 65700.00000 0 12246450.197 -2743157.871 -22182831.795 10 0 59411 66600.00000 0 14228428.402 -942063.734 -21126204.378 10 0 59411 67500.00000 0 16214840.410 612524.513 -19658333.703 10 0 59411 68400.00000 0 18141851.768 1900608.715 -17807858.118 10 0 59411 69300.00000 0 19944748.554 2914697.096 -15610863.604 10 0 59411 70200.00000 0 21560569.783 3659859.921 -13110172.988 10 0 59411 71100.00000 0 22930683.430 4153250.921 -10354503.440 10 0 59411 72000.00000 0 24003197.674 4423116.550 -7397509.361 10 0 59411 72900.00000 0 24735106.149 4507336.953 -4296729.931 10 0 59411 73800.00000 0 25094077.236 4451562.193 -1112462.555 10 0 59411 74700.00000 0 25059812.630 4307024.273 2093415.044 10 0 59411 75600.00000 0 24624918.738 4128118.994 5258650.548 10 0 59411 76500.00000 0 23795255.138 3969861.106 8321826.642 10 0 59411 77400.00000 0 22589746.392 3885321.128 11223550.649 10 0 59411 78300.00000 0 21039666.025 3923152.597 13907601.173 10 0 59411 79200.00000 0 19187423.437 4125314.259 16322009.879 10 0 59411 80100.00000 0 17084905.090 4525083.046 18420058.105 10 0 59411 81000.00000 0 14791439.472 5145441.279 20161169.972 10 0 59411 81900.00000 0 12371470.493 5997905.575 21511685.961 10 0 59411 82800.00000 0 9892035.682 7081846.452 22445503.161 10 0 59411 83700.00000 0 7420153.028 8384327.266 22944571.096 10 0 59411 84600.00000 0 5020223.689 9880469.623 22999234.596 10 0 59411 85500.00000 0 2751556.930 11534330.821 22608417.787 10 0 59412 0.00000 0 666118.326 13300257.787 21779646.077 10 0 59412 900.00000 0 -1193406.813 15124662.729 20528905.439 10 0 59412 1800.00000 0 -2795156.196 16948147.488 18880341.646 10 0 59412 2700.00000 0 -4119175.494 18707890.242 16865803.796 10 0 59412 3600.00000 0 -5158002.632 20340196.080 14524240.263 10 0 59412 4500.00000 0 -5916726.382 21783106.171 11900957.230 10 0 59412 5400.00000 0 -6412517.743 22978957.276 9046752.880 10 0 59412 6300.00000 0 -6673653.645 23876784.799 6016942.792 10 0 59412 7200.00000 0 -6738073.933 24434468.440 2870294.505 10 0 59412 8100.00000 0 -6651532.343 24620529.781 -332108.689 10 0 59412 9000.00000 0 -6465419.475 24415505.261 -3528053.014 10 0 59412 9900.00000 0 -6234349.923 23812835.455 -6655405.263 10 0 59412 10800.00000 0 -6013616.071 22819231.805 -9653325.736 10 0 59412 11700.00000 0 -5856617.041 21454503.837 -12463458.804 10 0 59412 12600.00000 0 -5812372.650 19750852.761 -15031077.010 10 0 59412 13500.00000 0 -5923228.837 17751659.951 -17306155.603 10 0 59412 14400.00000 0 -6222853.073 15509820.248 -19244355.732 10 0 59412 15300.00000 0 -6734606.000 13085689.410 -20807896.347 10 0 59412 16200.00000 0 -7470359.583 10544731.395 -21966297.246 10 0 59412 17100.00000 0 -8429813.092 7954963.776 -22696978.397 10 0 59412 18000.00000 0 -9600336.979 5384308.218 -22985703.494 10 0 59412 18900.00000 0 -10957352.299 2897956.747 -22826859.046 10 0 59412 19800.00000 0 -12465230.529 555863.751 -22223563.507 10 0 59412 20700.00000 0 -14078676.446 -1589531.659 -21187604.376 10 0 59412 21600.00000 0 -15744536.228 -3495258.294 -19739204.653 10 0 59412 22500.00000 0 -17403954.860 -5129359.729 -17906623.354 10 0 59412 23400.00000 0 -18994791.968 -6471971.633 -15725598.182 10 0 59412 24300.00000 0 -20454194.285 -7515886.005 -13238641.587 10 0 59412 25200.00000 0 -21721216.231 -8266580.367 -10494204.341 10 0 59412 26100.00000 0 -22739378.031 -8741712.653 -7545723.586 10 0 59412 27000.00000 0 -23459053.520 -8970105.168 -4450574.568 10 0 59412 27900.00000 0 -23839587.077 -8990262.594 -1268947.156 10 0 59412 28800.00000 0 -23851050.684 -8848488.529 1937330.126 10 0 59412 29700.00000 0 -23475567.563 -8596681.933 5105995.042 10 0 59412 30600.00000 0 -22708147.196 -8289908.038 8175561.637 10 0 59412 31500.00000 0 -21556997.340 -7983847.410 11086511.375 10 0 59412 32400.00000 0 -20043300.595 -7732231.594 13782442.393 10 0 59412 33300.00000 0 -18200465.515 -7584373.809 16211154.908 10 0 59412 34200.00000 0 -16072884.074 -7582898.721 18325652.375 10 0 59412 35100.00000 0 -13714247.539 -7761766.555 20085040.017 10 0 59412 36000.00000 0 -11185490.777 -8144674.169 21455304.533 10 0 59412 36900.00000 0 -8552450.036 -8743899.801 22409961.125 10 0 59412 37800.00000 0 -5883330.594 -9559639.646 22930556.593 10 0 59412 38700.00000 0 -3246088.052 -10579864.072 23007019.862 10 0 59412 39600.00000 0 -705830.433 -11780699.822 22637853.867 10 0 59412 40500.00000 0 1677652.888 -13127322.970 21830165.508 10 0 59412 41400.00000 0 3852134.716 -14575326.440 20599533.002 10 0 59412 42300.00000 0 5774874.377 -16072506.239 18969712.739 10 0 59412 43200.00000 0 7414144.367 -17560993.279 16972190.400 10 0 59412 44100.00000 0 8750296.854 -18979643.121 14645583.862 10 0 59412 45000.00000 0 9776326.257 -20266584.872 12034908.167 10 0 59412 45900.00000 0 10497904.867 -21361823.456 9190715.425 10 0 59412 46800.00000 0 10932890.198 -22209786.658 6168125.088 10 0 59412 47700.00000 0 11110324.690 -22761710.003 3025762.475 10 0 59412 48600.00000 0 11068969.761 -22977758.783 -175374.516 10 0 59412 49500.00000 0 10855435.942 -22828797.025 -3373098.838 10 0 59412 50400.00000 0 10521988.044 -22297727.598 -6505244.684 10 0 59412 51300.00000 0 10124118.383 -21380345.480 -9510880.920 10 0 59412 52200.00000 0 9717991.245 -20085666.515 -12331503.337 10 0 59412 53100.00000 0 9357867.459 -18435716.200 -14912181.572 10 0 59412 54000.00000 0 9093619.060 -16464785.798 -17202637.554 10 0 59412 54900.00000 0 8968440.356 -14218185.712 -19158233.614 10 0 59412 55800.00000 0 9016853.428 -11750547.443 -20740850.217 10 0 59412 56700.00000 0 9263093.597 -9123744.570 -21919635.634 10 0 59412 57600.00000 0 9719944.252 -6404519.265 -22671612.536 10 0 59412 58500.00000 0 10388071.211 -3661913.408 -22982129.369 10 0 59412 59400.00000 0 11255885.585 -964611.466 -22845147.618 10 0 59412 60300.00000 0 12299941.540 1621694.087 -22263359.320 10 0 59412 61200.00000 0 13485852.617 4036804.943 -21248132.572 10 0 59412 62100.00000 0 14769688.166 6228282.669 -19819286.252 10 0 59412 63000.00000 0 16099791.073 8153383.966 -18004698.499 10 0 59412 63900.00000 0 17418939.947 9780585.395 -15839756.863 10 0 59412 64800.00000 0 18666764.325 11090635.078 -13366661.202 10 0 59412 65700.00000 0 19782310.686 12077088.820 -10633593.358 10 0 59412 66600.00000 0 20706650.617 12746309.964 -7693770.391 10 0 59412 67500.00000 0 21385420.794 13116935.047 -4604400.532 10 0 59412 68400.00000 0 21771187.395 13218829.859 -1425562.862 10 0 59412 69300.00000 0 21825535.143 13091582.007 1780966.628 10 0 59412 70200.00000 0 21520793.033 12782595.523 4952919.088 10 0 59412 71100.00000 0 20841324.314 12344869.642 8028743.084 10 0 59412 72000.00000 0 19784326.851 11834556.786 10948797.165 10 0 59412 72900.00000 0 18360110.720 11308403.759 13656501.644 10 0 59412 73800.00000 0 16591841.792 10821184.497 16099427.586 10 0 59412 74700.00000 0 14514762.399 10423232.583 18230302.491 10 0 59412 75600.00000 0 12174921.733 10158177.087 20007914.217 10 0 59412 76500.00000 0 9627468.657 10060976.355 21397896.823 10 0 59412 77400.00000 0 6934577.531 10156331.634 22373384.344 10 0 59412 78300.00000 0 4163092.252 10457546.462 22915521.155 10 0 59412 79200.00000 0 1381985.006 10965879.158 23013820.112 10 0 59412 80100.00000 0 -1340266.364 11670415.400 22666362.315 10 0 59412 81000.00000 0 -3938275.433 12548466.448 21879835.046 10 0 59412 81900.00000 0 -6352212.862 13566476.975 20669407.097 10 0 59412 82800.00000 0 -8530039.991 14681405.488 19058443.424 10 0 59412 83700.00000 0 -10429419.163 15842520.753 17078063.808 10 0 59412 84600.00000 0 -12019222.584 16993540.338 14766552.850 10 0 59412 85500.00000 0 -13280577.659 18075022.844 12168631.460 10 0 59413 0.00000 0 -14207405.746 19026914.557 9334602.656 10 0 59413 900.00000 0 -14806431.925 19791144.006 6319386.545 10 0 59413 1800.00000 0 -15096665.692 20314156.217 3181463.272 10 0 59413 2700.00000 0 -15108373.511 20549278.491 -18257.553 10 0 59413 3600.00000 0 -14881587.252 20458818.686 -3217618.345 10 0 59413 4500.00000 0 -14464210.560 20015805.293 -6354423.240 10 0 59413 5400.00000 0 -13909803.583 19205294.897 -9367652.004 10 0 59413 6300.00000 0 -13275139.813 18025189.937 -12198653.932 10 0 59413 7200.00000 0 -12617638.927 16486530.540 -14792297.572 10 0 59413 8100.00000 0 -11992784.917 14613246.291 -17098053.054 10 0 59413 9000.00000 0 -11451639.594 12441376.715 -19070985.119 10 0 59413 9900.00000 0 -11038557.583 10017791.849 -20672636.667 10 0 59413 10800.00000 0 -10789200.347 7398465.405 -21871785.065 10 0 59413 11700.00000 0 -10728934.065 4646372.015 -22645056.034 10 0 59413 12600.00000 0 -10871679.793 1829095.985 -22977382.834 10 0 59413 13500.00000 0 -11219265.027 -983748.891 -22862301.692 10 0 59413 14400.00000 0 -11761304.435 -3723180.998 -22302077.678 10 0 59413 15300.00000 0 -12475614.970 -6323483.132 -21307658.602 10 0 59413 16200.00000 0 -13329147.810 -8724695.728 -19898458.000 10 0 59413 17100.00000 0 -14279397.589 -10874867.521 -18101971.573 10 0 59413 18000.00000 0 -15276229.078 -12731970.185 -15953234.844 10 0 59413 18900.00000 0 -16264043.679 -14265397.914 -13494132.956 10 0 59413 19800.00000 0 -17184193.698 -15456990.460 -10772576.484 10 0 59413 20700.00000 0 -17977541.800 -16301538.214 -7841559.942 10 0 59413 21600.00000 0 -18587056.987 -16806750.040 -4758121.993 10 0 59413 22500.00000 0 -18960336.956 -16992687.181 -1582228.322 10 0 59413 23400.00000 0 -19051949.995 -16890689.118 1624400.243 10 0 59413 24300.00000 0 -18825497.422 -16541838.674 4799490.893 10 0 59413 25200.00000 0 -18255309.593 -15995032.876 7881429.361 10 0 59413 26100.00000 0 -17327704.208 -15304742.447 10810453.902 10 0 59413 27000.00000 0 -16041754.288 -14528555.490 13529809.540 10 0 59413 27900.00000 0 -14409533.794 -13724609.545 15986840.573 10 0 59413 28800.00000 0 -12455830.846 -12949020.310 18134000.713 10 0 59413 29700.00000 0 -10217340.547 -12253414.969 19929762.310 10 0 59413 30600.00000 0 -7741370.791 -11682673.139 21339408.266 10 0 59413 31500.00000 0 -5084114.477 -11272969.457 22335692.517 10 0 59413 32400.00000 0 -2308558.979 -11050198.966 22899357.629 10 0 59413 33300.00000 0 517881.631 -11028850.422 23019500.566 10 0 59413 34200.00000 0 3325914.873 -11211374.087 22693780.345 10 0 59413 35100.00000 0 6046994.835 -11588070.170 21928463.991 10 0 59413 36000.00000 0 8615916.876 -12137502.662 20738309.873 10 0 59413 36900.00000 0 10973276.153 -12827421.730 19146290.199 10 0 59413 37800.00000 0 13067689.546 -13616156.798 17183157.226 10 0 59413 38700.00000 0 14857689.997 -14454422.990 14886860.362 10 0 59413 39600.00000 0 16313215.226 -15287466.161 12301824.189 10 0 59413 40500.00000 0 17416629.418 -16057457.464 9478100.007 10 0 59413 41400.00000 0 18163235.381 -16706037.472 6470406.100 10 0 59413 42300.00000 0 18561255.659 -17176903.137 3337074.358 10 0 59413 43200.00000 0 18631283.212 -17418328.494 138923.023 10 0 59413 44100.00000 0 18405224.439 -17385512.200 -3061922.917 10 0 59413 45000.00000 0 17924778.815 -17042651.820 -6203240.622 10 0 59413 45900.00000 0 17239519.117 -16364655.857 -9223923.698 10 0 59413 46800.00000 0 16404653.360 -15338419.494 -12065177.689 10 0 59413 47700.00000 0 15478563.240 -13963608.324 -14671672.540 10 0 59413 48600.00000 0 14520223.593 -12252915.077 -16992628.794 10 0 59413 49500.00000 0 13586612.563 -10231776.572 -18982815.496 10 0 59413 50400.00000 0 12730222.647 -7937561.162 -20603439.547 10 0 59413 51300.00000 0 11996778.490 -5418259.284 -21822908.614 10 0 59413 52200.00000 0 11423258.488 -2730730.809 -22617452.284 10 0 59413 53100.00000 0 11036304.266 61418.244 -22971589.044 10 0 59413 54000.00000 0 10851085.483 2890241.517 -22878429.862 10 0 59413 54900.00000 0 10870668.043 5686040.577 -22339812.429 10 0 59413 55800.00000 0 11085912.257 8380027.812 -21366263.474 10 0 59413 56700.00000 0 11475904.983 10906953.107 -19976790.020 10 0 59413 57600.00000 0 12008907.006 13207584.969 -18198503.797 10 0 59413 58500.00000 0 12643775.021 15230942.904 -16066086.427 10 0 59413 59400.00000 0 13331797.354 16936188.394 -13621106.127 10 0 59413 60300.00000 0 14018865.057 18294096.357 -10911199.672 10 0 59413 61200.00000 0 14647885.691 19288046.604 -7989136.190 10 0 59413 62100.00000 0 15161336.930 19914495.263 -4911781.683 10 0 59413 63000.00000 0 15503851.300 20182908.159 -1738985.155 10 0 59413 63900.00000 0 15624722.175 20115160.814 1467591.114 10 0 59413 64800.00000 0 15480224.760 19744432.300 4645673.723 10 0 59413 65700.00000 0 15035653.843 19113641.384 7733588.841 10 0 59413 66600.00000 0 14266992.363 18273492.430 10671457.473 10 0 59413 67500.00000 0 13162140.601 17280214.662 13402352.127 10 0 59413 68400.00000 0 11721654.461 16193090.769 15873392.774 10 0 59413 69300.00000 0 9958961.990 15071879.190 18036761.406 10 0 59413 70200.00000 0 7900049.035 13974238.262 19850616.557 10 0 59413 71100.00000 0 5582626.861 12953259.812 21279891.258 10 0 59413 72000.00000 0 3054815.938 12055214.756 22296960.221 10 0 59413 72900.00000 0 373399.750 11317604.047 22882164.625 10 0 59413 73800.00000 0 -2398280.133 10767595.411 23024185.500 10 0 59413 74700.00000 0 -5192701.768 10420910.287 22720259.232 10 0 59413 75600.00000 0 -7940716.589 10281206.703 21976231.525 10 0 59413 76500.00000 0 -10574175.132 10339983.458 20806448.725 10 0 59413 77400.00000 0 -13028517.627 10577009.580 19233488.197 10 0 59413 78300.00000 0 -15245223.611 10961261.344 17287732.116 10 0 59413 79200.00000 0 -17174020.190 11452328.214 15006791.774 10 0 59413 80100.00000 0 -18774758.009 12002229.476 12434792.226 10 0 59413 81000.00000 0 -20018877.382 12557566.084 9621529.802 10 0 59413 81900.00000 0 -20890403.614 13061917.862 6621517.474 10 0 59413 82800.00000 0 -21386429.679 13458385.564 3492935.676 10 0 59413 83700.00000 0 -21517065.772 13692170.616 296508.172 10 0 59413 84600.00000 0 -21304857.346 13713083.266 -2905675.555 10 0 59413 85500.00000 0 -20783695.653 13477872.382 -6051368.360 99